• In Österreich
  • Länderverzeichnis
  • Für 7 Tage
  • Wassertemperatur
  • Satellitenkarten
  • Wetterkarte
  • News
  • Widgets
  • user-avatar
    Anmelden

    Stündliche Wetter Montana

    Heute, 20 Mai, Sonntag

    Zeit Temperatur Niederschläge Wind Luftdruck Luftfeuchtigkeit
    00:00 +14°C° 0 mm 1 m/S 734 mmHg 86%
    01:00 +14°C° 0 mm 1 m/S 734 mmHg 87%
    02:00 +14°C° 0 mm 1 m/S 734 mmHg 89%
    03:00 +13°C° 0 mm 1 m/S 734 mmHg 90%
    04:00 +13°C° 0 mm 1 m/S 734 mmHg 91%
    05:00 +13°C° 0 mm 1 m/S 735 mmHg 92%
    06:00 +15°C° 0 mm 1 m/S 735 mmHg 87%
    07:00 +16°C° 0 mm 1 m/S 735 mmHg 82%
    08:00 +19°C° 0 mm 1 m/S 735 mmHg 77%
    09:00 +20°C° 0,1 mm 1 m/S 735 mmHg 72%
    10:00 +22°C° 0,1 mm 1 m/S 735 mmHg 66%
    11:00 +23°C° 0,1 mm 1 m/S 736 mmHg 61%
    12:00 +24°C° 0,1 mm 1 m/S 735 mmHg 58%
    13:00 +24°C° 0,1 mm 2 m/S 735 mmHg 55%
    14:00 +25°C° 0,1 mm 2 m/S 735 mmHg 53%
    15:00 +25°C° 0,2 mm 2 m/S 735 mmHg 55%
    16:00 +24°C° 0,2 mm 2 m/S 734 mmHg 57%
    17:00 +24°C° 0,2 mm 2 m/S 734 mmHg 59%
    18:00 +22°C° 0,1 mm 1 m/S 734 mmHg 66%
    19:00 +21°C° 0,1 mm 1 m/S 734 mmHg 72%
    20:00 +19°C° 0,1 mm 1 m/S 734 mmHg 79%
    21:00 +18°C° 0,1 mm 1 m/S 735 mmHg 81%
    22:00 +16°C° 0,1 mm 1 m/S 735 mmHg 82%
    23:00 +16°C° 0,1 mm 1 m/S 735 mmHg 84%

    Morgen, 21 Mai, Montag

    Zeit Temperatur Niederschläge Wind Luftdruck Luftfeuchtigkeit
    00:00 +16°C° 0,1 mm 1 m/S 735 mmHg 85%
    01:00 +15°C° 0,1 mm 1 m/S 735 mmHg 87%
    02:00 +15°C° 0,1 mm 1 m/S 735 mmHg 88%
    03:00 +15°C° 0,1 mm 1 m/S 735 mmHg 89%
    04:00 +15°C° 0,1 mm 1 m/S 735 mmHg 90%
    05:00 +14°C° 0,1 mm 1 m/S 735 mmHg 91%
    06:00 +16°C° 0 mm 1 m/S 735 mmHg 87%
    07:00 +17°C° 0 mm 2 m/S 736 mmHg 83%
    08:00 +19°C° 0 mm 2 m/S 736 mmHg 79%
    09:00 +20°C° 0,2 mm 2 m/S 736 mmHg 75%
    10:00 +21°C° 0,2 mm 3 m/S 736 mmHg 72%
    11:00 +22°C° 0,2 mm 3 m/S 736 mmHg 68%
    12:00 +24°C° 0,5 mm 3 m/S 735 mmHg 67%
    13:00 +24°C° 0,5 mm 3 m/S 735 mmHg 66%
    14:00 +25°C° 0,5 mm 4 m/S 734 mmHg 65%
    15:00 +23°C° 0,8 mm 4 m/S 734 mmHg 68%
    16:00 +23°C° 0,8 mm 4 m/S 734 mmHg 70%
    17:00 +23°C° 0,8 mm 4 m/S 734 mmHg 72%
    18:00 +21°C° 0,2 mm 3 m/S 734 mmHg 77%
    19:00 +20°C° 0,2 mm 3 m/S 734 mmHg 82%
    20:00 +18°C° 0,2 mm 2 m/S 734 mmHg 87%
    21:00 +18°C° 0,3 mm 2 m/S 734 mmHg 88%
    22:00 +17°C° 0,3 mm 2 m/S 734 mmHg 90%
    23:00 +17°C° 0,3 mm 2 m/S 735 mmHg 91%

    übermorgen, 22 Mai, Dienstag

    Zeit Temperatur Niederschläge Wind Luftdruck Luftfeuchtigkeit
    00:00 +16°C° 0,1 mm 2 m/S 734 mmHg 91%
    01:00 +16°C° 0,1 mm 2 m/S 734 mmHg 92%
    02:00 +16°C° 0,1 mm 2 m/S 734 mmHg 93%
    03:00 +15°C° 0 mm 2 m/S 734 mmHg 93%
    04:00 +15°C° 0 mm 2 m/S 734 mmHg 94%
    05:00 +15°C° 0 mm 2 m/S 734 mmHg 94%
    06:00 +16°C° 0 mm 2 m/S 735 mmHg 90%
    07:00 +17°C° 0 mm 2 m/S 735 mmHg 86%
    08:00 +18°C° 0 mm 2 m/S 735 mmHg 82%
    09:00 +20°C° 0 mm 2 m/S 736 mmHg 76%
    10:00 +21°C° 0 mm 2 m/S 736 mmHg 70%
    11:00 +24°C° 0 mm 2 m/S 736 mmHg 65%
    12:00 +24°C° 0,2 mm 2 m/S 736 mmHg 64%
    13:00 +25°C° 0,2 mm 2 m/S 735 mmHg 64%
    14:00 +25°C° 0,2 mm 2 m/S 735 mmHg 64%
    15:00 +25°C° 0,7 mm 2 m/S 735 mmHg 65%
    16:00 +25°C° 0,7 mm 2 m/S 735 mmHg 66%
    17:00 +25°C° 0,7 mm 2 m/S 735 mmHg 67%
    18:00 +24°C° 0,3 mm 2 m/S 735 mmHg 72%
    19:00 +22°C° 0,3 mm 1 m/S 735 mmHg 77%
    20:00 +21°C° 0,3 mm 1 m/S 735 mmHg 83%
    21:00 +20°C° 0,1 mm 1 m/S 735 mmHg 84%
    22:00 +20°C° 0,1 mm 1 m/S 736 mmHg 86%
    23:00 +19°C° 0,1 mm 1 m/S 736 mmHg 88%

    23 Mai, Mittwoch

    Zeit Temperatur Niederschläge Wind Luftdruck Luftfeuchtigkeit
    00:00 +18°C° 0,1 mm 1 m/S 736 mmHg 88%
    01:00 +18°C° 0,1 mm 1 m/S 736 mmHg 89%
    02:00 +16°C° 0,1 mm 1 m/S 736 mmHg 90%
    03:00 +16°C° 0,1 mm 1 m/S 736 mmHg 90%
    04:00 +16°C° 0,1 mm 1 m/S 736 mmHg 90%
    05:00 +15°C° 0,1 mm 1 m/S 736 mmHg 90%
    06:00 +18°C° 0 mm 1 m/S 736 mmHg 86%
    07:00 +19°C° 0 mm 1 m/S 736 mmHg 82%
    08:00 +21°C° 0 mm 1 m/S 736 mmHg 78%
    09:00 +22°C° 0 mm 1 m/S 736 mmHg 73%
    10:00 +24°C° 0 mm 1 m/S 736 mmHg 68%
    11:00 +25°C° 0 mm 2 m/S 736 mmHg 63%
    12:00 +26°C° 0,5 mm 2 m/S 736 mmHg 63%
    13:00 +26°C° 0,5 mm 2 m/S 735 mmHg 63%
    14:00 +27°C° 0,5 mm 2 m/S 735 mmHg 62%
    15:00 +26°C° 1 mm 2 m/S 735 mmHg 65%
    16:00 +26°C° 1 mm 2 m/S 734 mmHg 68%
    17:00 +25°C° 1 mm 2 m/S 734 mmHg 71%
    18:00 +24°C° 0,4 mm 2 m/S 734 mmHg 74%
    19:00 +23°C° 0,4 mm 1 m/S 734 mmHg 78%
    20:00 +21°C° 0,4 mm 1 m/S 734 mmHg 81%
    21:00 +21°C° 0,3 mm 1 m/S 734 mmHg 82%
    22:00 +20°C° 0,3 mm 1 m/S 734 mmHg 84%
    23:00 +20°C° 0,3 mm 1 m/S 734 mmHg 85%

    24 Mai, Donnerstag

    Zeit Temperatur Niederschläge Wind Luftdruck Luftfeuchtigkeit
    00:00 +19°C° 0,7 mm 1 m/S 734 mmHg 86%
    01:00 +19°C° 0,7 mm 1 m/S 734 mmHg 87%
    02:00 +19°C° 0,7 mm 1 m/S 733 mmHg 88%
    03:00 +18°C° 0,6 mm 1 m/S 733 mmHg 89%
    04:00 +18°C° 0,6 mm 1 m/S 733 mmHg 90%
    05:00 +18°C° 0,6 mm 1 m/S 733 mmHg 91%
    06:00 +19°C° 0,5 mm 1 m/S 733 mmHg 89%
    07:00 +19°C° 0,5 mm 1 m/S 733 mmHg 87%
    08:00 +20°C° 0,5 mm 1 m/S 733 mmHg 85%
    09:00 +21°C° 0,4 mm 1 m/S 733 mmHg 80%
    10:00 +21°C° 0,4 mm 2 m/S 733 mmHg 76%
    11:00 +24°C° 0,4 mm 2 m/S 733 mmHg 71%
    12:00 +24°C° 0,7 mm 2 m/S 733 mmHg 68%
    13:00 +25°C° 0,7 mm 2 m/S 733 mmHg 65%
    14:00 +25°C° 0,7 mm 3 m/S 732 mmHg 62%
    15:00 +25°C° 0,6 mm 2 m/S 732 mmHg 62%
    16:00 +25°C° 0,6 mm 2 m/S 732 mmHg 62%
    17:00 +25°C° 0,6 mm 2 m/S 731 mmHg 62%
    18:00 +24°C° 0,2 mm 2 m/S 731 mmHg 66%
    19:00 +22°C° 0,2 mm 1 m/S 731 mmHg 71%
    20:00 +20°C° 0,2 mm 1 m/S 731 mmHg 76%
    21:00 +19°C° 0 mm 1 m/S 732 mmHg 77%
    22:00 +19°C° 0 mm 1 m/S 732 mmHg 78%
    23:00 +18°C° 0 mm 1 m/S 732 mmHg 79%

    25 Mai, Freitag

    Zeit Temperatur Niederschläge Wind Luftdruck Luftfeuchtigkeit
    00:00 +18°C° 0 mm 1 m/S 732 mmHg 80%
    01:00 +16°C° 0 mm 1 m/S 732 mmHg 81%
    02:00 +16°C° 0 mm 1 m/S 732 mmHg 82%
    03:00 +16°C° 0 mm 1 m/S 732 mmHg 83%
    04:00 +15°C° 0 mm 1 m/S 732 mmHg 83%
    05:00 +15°C° 0 mm 1 m/S 732 mmHg 84%
    06:00 +18°C° 0 mm 1 m/S 732 mmHg 79%
    07:00 +20°C° 0 mm 1 m/S 732 mmHg 75%
    08:00 +21°C° 0 mm 1 m/S 732 mmHg 71%
    09:00 +23°C° 0 mm 1 m/S 732 mmHg 65%
    10:00 +24°C° 0 mm 2 m/S 732 mmHg 59%
    11:00 +26°C° 0 mm 2 m/S 732 mmHg 53%
    12:00 +26°C° 0,1 mm 2 m/S 732 mmHg 51%
    13:00 +27°C° 0,1 mm 2 m/S 732 mmHg 50%
    14:00 +28°C° 0,1 mm 3 m/S 732 mmHg 48%
    15:00 +27°C° 0 mm 3 m/S 732 mmHg 50%
    16:00 +27°C° 0 mm 3 m/S 732 mmHg 52%
    17:00 +27°C° 0 mm 3 m/S 732 mmHg 54%
    18:00 +25°C° 0 mm 2 m/S 732 mmHg 61%
    19:00 +23°C° 0 mm 2 m/S 732 mmHg 68%
    20:00 +21°C° 0 mm 1 m/S 732 mmHg 75%
    21:00 +20°C° 0 mm 1 m/S 732 mmHg 76%
    22:00 +20°C° 0 mm 1 m/S 732 mmHg 77%
    23:00 +19°C° 0 mm 1 m/S 733 mmHg 79%
    Mehr zeigen